星链-31724 (STARLINK-31724 )
导读
STARLINK-31724是美国太空探索技术公司(SpaceX)星链(Starlink)互联网卫星项目的一颗卫星,由美国于2024年4月18日发射入轨,属于星链星座组网卫星的一员,主要用于为全球提供高速低延迟的宽带互联网服务,尤其覆盖偏远地区和网络基础设施薄弱区域。
Basic Information
目录编号:
59554
目录名称:
STARLINK-31724
国际标识:
2024-074W
轨道中心:
EARTH
卫星名称:
星链-31724
卫星全名:
星链-31724 (STARLINK-31724 )
卫星状态:
在轨 (已飞行876 天)
发射日期:
2024-04-18 UTC
国别 :
美国
(US)
星等 :
--
This satellite is enrolled in the Space Conjunction Data Service (SCDS) and the current flight risk assessment level is: High Risk
Orbit Information
| 数据来源 | 国际轨道数据 |
| 星历时间: | 2026-09-11T14:03:11+0800 14小时前 查看轨道信息 |
| 半长轴: | 6861.189km |
| 偏心率: | 0.0000812 |
| 轨道倾角: | 43.002° |
| 近地点辐角 | 298.458° |
| 升交点赤经 | 339.535° |
| 平近点角 | 61.619° |
| 近地点: | 482.494km |
| 远地点: | 483.61km |
| 周期: | 94.267分钟 |
| 每日圈数: | 15.275792 |
Detailed Information
固有亮度:
5
最大亮度:
1.5
卫星平台:
Starlink v2.0 mini
覆盖范围:
全球
运营商:
太空探索技术公司
运营商所在国:
美国
制造商(研发单位):
太空探索技术公司
制造商所在国:
美国
使用方式:
暂无
Satellite Introduction
星链(Starlink)计划是由太空探索技术公司(SpaceX)提出的一个巨型低轨卫星互联网星座项目,计划在2019年至2024年间在太空搭建由约1.2万颗卫星组成的“星链”网络,其中1584颗将部署在地球上空550千米处的近地轨道,并从2020年开始工作。该卫星仍在工作。
2D Orbit Map
3D Orbit Map
Orbit Altitude Analysis Chart
Orbit Inclination Analysis Chart
Orbit Comprehensive Analysis Chart
View Comprehensive ChartConjunction Data List
| Event ID | Objects | TCA | Miss Dist (km) | Collision Risk Probability | Collision Risk Index (CRI) | Action |
|---|---|---|---|---|---|---|
| CDM_260910-030405-955406-364721 |
STARLINK-31724
(59554)
STARLINK-33729
(63647) | 2026-09-10T 03:04:45+0000 |
0.209 km
中距离 | 5.317247E-4 高风险 | 0.9 | |
| CDM_260913-211705-955406-650521 |
STARLINK-31724
(59554)
STARLINK-34766
(66505) | 2026-09-13T 21:17:07+0000 |
0.291 km
中距离 | 2.944755E-4 高风险 | 0.84 | |
| CDM_260913-154705-955406-650521 |
STARLINK-31724
(59554)
STARLINK-34766
(66505) | 2026-09-13T 15:47:35+0000 |
0.564 km
远距离 | 6.582307E-5 中风险 | 0.71 | |
| CDM_260910-083405-955406-364721 |
STARLINK-31724
(59554)
STARLINK-33729
(63647) | 2026-09-10T 08:34:17+0000 |
1.068 km
极远距离 | 1.015965E-5 中风险 | 0.55 | |
| CDM_260911-054705-955406-697521 |
STARLINK-31724
(59554)
STARLINK-35777
(66975) | 2026-09-11T 05:47:27+0000 |
1.176 km
极远距离 | 8.606438E-6 低风险 | 0.54 | |
| CDM_260911-041305-955406-697521 |
STARLINK-31724
(59554)
STARLINK-35777
(66975) | 2026-09-11T 04:13:18+0000 |
1.905 km
极远距离 | 1.922866E-6 低风险 | 0.41 | |
| CDM_260910-100805-955406-364721 |
STARLINK-31724
(59554)
STARLINK-33729
(63647) | 2026-09-10T 10:08:26+0000 |
1.936 km
极远距离 | 1.5943E-6 低风险 | 0.39 | |
| CDM_260910-043805-955406-364721 |
STARLINK-31724
(59554)
STARLINK-33729
(63647) | 2026-09-10T 04:38:54+0000 |
2.569 km
极远距离 | 9.015429E-7 极低风险 | 0.34 | |
| CDM_260910-013005-955406-364721 |
STARLINK-31724
(59554)
STARLINK-33729
(63647) | 2026-09-10T 01:30:36+0000 |
2.617 km
极远距离 | 8.761536E-7 极低风险 | 0.34 | |
| CDM_260913-194205-955406-650521 |
STARLINK-31724
(59554)
STARLINK-34766
(66505) | 2026-09-13T 19:42:58+0000 |
2.630 km
极远距离 | 7.470951E-7 极低风险 | 0.32 |
Miss Distance Evolution Trend with All Objects
Collision Probability Evolution Trend with All Objects

